Showing default

ION SCV-017, 63230

Orbit data source: Space-Track

ION SCV-017, 63230 is a payload satellite owned by D-ORBIT (IT) in SSO that was launched on Sat, 15 Mar 2025 UTC via an FALCON 9 launch vehicle from the Air Force Western Test Range (AFWTR). Payload-class satellites include a variety of spacecraft equipped with specific instruments for various scientific and technological missions. These include communications satellites like Starlink; space stations such as the ISS; scientific satellites like the Hubble; Earth observation satellites from companies like Planet Labs, Umbra, and HawkEye 360; GPS; miniature CubeSats for education and research; and military/defense satellites.

Loading next visibility...
Identifier
63230, 2025-052W
Orbit
SSO
Country
Flag of ITIT
Related business
Manufacturer
D-ORBIT
Mission
Operational Commercial Technology
Bus & Motor
ION-SC, PM200
Mass
220 kg wet, 150 kg dry
Launch date (UTC)
2025-03-15 (1 year ago)
Launch vehicle
FALCON 9
Launch site
Air Force Western Test Range (AFWTR)
Object type
Payload
Rocket body
Debris
Shape & HBR
Box, 1.9 m
Radar Cross Section
0.240 m², Large (>1 m²)

Expand to show TLE details & history
Last TLE update: 9 hours ago

TLE from 9 hours ago
0 ION SCV-017
1 63230U 25052W   26175.17515946  .00003998  00000-0  14876-3 0  9995
2 63230  97.3907  70.2940 0022795  29.6381 330.6145 15.27844945 71107
Epoch: 2026-06-24T04:12Z
TLE epoch observation values (Epoch: 2026-06-24T04:12:13.777Z)
Latitude
0.00001°
Longitude
94.90045°
Altitude
471.737 km
Speed
7.638 km/s
True Right ascension
04h 41m 10s
True Declination
0° 00' 00"
Sunlit
Object was in daylight at epoch
Visualization orbit readout
Latitude
Unknown
Longitude
Unknown
Altitude
Unknown
Speed
Unknown
Apparent Right ascension
Unknown
Apparent Declination
Unknown
Sunlit
N/A
Visualization observer readout
Local Sidereal Time
00:50:16
Azimuth
Unknown
Elevation
Unknown
Doppler factor
Unknown
Orbital elements
Apogee altitude
494.842 km
Perigee altitude
463.579 km
Semi-major axis
6,857.348 km
Eccentricity
0.00228
Inclination
97.3907°
RAAN
70.294°
Arg. of periapsis
29.6381°
True anomaly
330.48601°
Mean anomaly
330.6145°
Eccentric anomaly
330.55029°
Mean motion
3.82216 °/min
Orbital period
94.19 mins
BSTAR
0.00014876
Loading maneuver chart data...
Computing Atmospheric mass density...
Loading historical data...
Loading historical data...
Loading historical data...
Loading historical data...
Loading historical data...
Loading historical data...
Loading historical data...

Documentation

Showing up to 5 results
|